Погода в Безенчуке

Погода в Безенчуке : погода сейчас, прогноз погоды и архив. Всё, что Вы хотите узнать о погоде в Безенчуке!

Хотите узнать прогноз погоды в Безенчуке? Тогда Вам сюда: Погода в Безенчуке

Поиск расширенной информации на нашем сайте:

Полезная информация: Купить пожарную сигнализацию хабаровск на сайте http://www.ark-khv.ru.

Другие новости

Новости СМИ2

Главная страница сайта

Новости сайта

02.10.2013

Напоминаем, что на нашем новом сайте вы можете получить высокодетализированные прогнозы погоды по пунктам России, СНГ и мира (включающие важные для авиации метеовеличины, такие как направление и скорость ветра, видимость, явления погоды, количество и форма облачности, нижняя и верхняя граница облачности), а также ознакомиться с разнообразными материалами по авиационной метеорологии и подборкой полезных ссылок на эту тему.

Сайт Метеоцентр.Азия посвящён разработке технологий оптимизации авиаметеорологического обслуживания, включая проектирование и перспективное создание нескольких автоматизированных авиаметеорологических систем:
- система выпуска высокодетальных прогностических карт явлений погоды для нижнего воздушного пространства по России и ближнему зарубежью;
- система верификации прогнозов TAF (выпускаемых синоптиками официальных АМСГ РФ и ближнего зарубежья) и AUTOTAF (выпускаемых сайтом Метеоцентр.Азия) - выявление ошибок, онлайн-сопоставление с фактической погодой METAR, автоматическое внесение коррективов в прогнозы при резком отклонении фактической погоды от прогноза, подсчёт оправдываемости прогнозов по элементам и в целом;
- система обработки, анализа и отображения авиаметеорологической информации для применения провайдерами метеорологической информации.

Рекомендуем: Смотри здесь парикмахерское оборудование хабаровск.

Погода в Безенчуке - сегодня

Время (UTC), дата Ветер
(°,м/с) 
Видим.   Явления Облачность Т
(°С)
Тd
(°С)
f(%) Тe
(°С)
Pmin
(гПа)
dP
(гПа)
Po
(мм)
O2
(г/м3)
Тmin Tmax R s Состояние
почвы
15 21.01.17 240 (ЮЗ) 23000 м    10/0 средняя 
[Ac und]
-7.4 -9.7 84 -10  1003.8  -1.1  748  311    -7.1       
18 21.01.17 290 (З) 22000 м    9/0 средняя 
[Ac und]
-6.5 -9.1 82 -9  1004.5  0.7  749  310           
21 21.01.17 290 (З) 22000 м    9/0 средняя 
[Ac und]
-9.3 -11.1 87 -11  1006  1.5  750  314           
00 22.01.17 270 (З) 21000 м    9/0 средняя 
[Ac und]
-12.4 -13.4 92 -14  1006.7  0.6  750  318           
03 22.01.17 280 (З) 21000 м    10/0 средняя 
[Ac und]
-9.3 -11.2 86 -13  1007.1  0.4  751  314  -13.8      37  равномерный
сухой снег
100% 
06 22.01.17 270 (З) 4000 м  слаб. снег  10/0 средняя 
[As trans]
-7.6 -9.7 85 -11  1007.8  0.8  751  312           
09 22.01.17 270 (З) 4000 м  слаб. снег  8/3 600 м средняя 
[Sc|As op]
-7.6 -9.7 85 -11  1007.9  0.1  751  312           
12 22.01.17 280 (З) 4{10}  4000 м  слаб. снег  9/6 600 м средняя 
[Sc|As trans]
-6.8 -11.1 71 -10  1008.5  0.6  752  312           
15 22.01.17 260 (З) 23000 м    ясно 
-9 -12.2 78 -11  1008.8  0.2  752  314    -6.4  0.0     
18 22.01.17 260 (З) 22000 м    9/0 средняя 
[Ac trans]
-11.2 -13.4 84 -13  1008.7  -0.1  752  317           
21 22.01.17 260 (З) 3000 м  слаб. снег  10/8 600 м средняя 
[Sc|As op]
-9.2 -10.5 90 -12  1008.7  752  315           
00 23.01.17 260 (З) 6000 м  слаб. снег  6/0 верхняя 
[Ci fib]
-11.9 -13.2 90 -14  1009.8  753  318           
03 23.01.17 270 (З) 23000 м  {снег}  1/0 верхняя 
[Ci fib]
-15.1 -16.3 91 -17  1012.1  2.1  754  323  -15.1    0.3  37  равномерный
сухой снег
100% 
06 23.01.17 290 (З) 4000 м  слаб. снег  10/0 средняя 
[As op]
-8.1 -10.6 82 -11  1013.8  1.8  756  315  -15.1         
09 23.01.17 260 (З) 20000 м  {снег}  9/9 600 м 
[Sc]
-6.4 -9.9 76 -9  1015  1.2  757  313           
12 23.01.17 230 (ЮЗ) 20000 м  {снег}  9/9 600 м 
[Sc]
-6.8 -10.1 77 -8  1015.2  0.2  757  314           
15 23.01.17 240 (ЮЗ) 22000 м    ясно 
-10.6 -13.1 82 -12  1015.7  0.4  757  319    -5.4  0.0     
18 23.01.17 230 (ЮЗ) 23000 м    9/0 средняя 
[Ac lent]
-11.2 -12.8 88 -13  1014.9  -0.6  756  319           
21 23.01.17 210 (ЮЗ) 22000 м    9/9 600 м 
[Sc]
-8.3 -10.3 85 -10  1013.6  -1.2  755  315           
00 24.01.17 210 (ЮЗ) 3000 м  снег  10/10 600 м 
[Ns]
-5.3 -6.1 94 -8  1010.6  -2.9  753  310           
03 24.01.17 220 (ЮЗ) 7000 м  слаб. снег  10/10 600 м 
[Ns]
-1.9 -3.3 90 -4  1007.7  -2.8  751  305  -11.8    38  равномерный
сухой снег
100% 
06 24.01.17 230 (ЮЗ) 20000 м  {снег}  10/10 600 м 
[Sc]
-0.9 -2.3 90 -3  1006.7  -0.9  750  304           
09 24.01.17 230 (ЮЗ) 20000 м    10/10 600 м 
[Sc]
-0.3 -2 88 -3  1006.3  -0.4  750  303           
12 24.01.17 240 (ЮЗ) 20000 м    10/10 600 м 
[Sc]
-0.2 -2.1 87 -2  1005.8  -0.5  750  303           
15 24.01.17 250 (З) 20000 м    10/10 540 м 
[St]
-0.6 -2.8 85 -2  1006.2  0.4  750  303    +0.1  0.0     
Время (UTC), дата Ветер
(°,м/с) 
Видим.   Явления Облачность Т
(°С)
Тd
(°С)
f(%) Тe
(°С)
Pmin
(гПа)
dP
(гПа)
Po
(мм)
O2
(г/м3)
Тmin Tmax R s Состояние
почвы

Для получения пояснительной информации подведите курсор к названию столбца.

ПОГОДА в Безенчуке - архив

Всё, что Вы хотите узнать о погоде в Безенчуке - удобно и подробно!

Выберите нужную дату (начиная с 1 января 2015* года) и нажмите кнопку "Найти".
Будут отображены архивные сводки погоды по пункту Безенчук, начиная с указанной даты.


Отображать данные в формате CSV (для использования в таблицах Excel)


Внимание! Наш архив погоды предназначен исключительно для личного некоммерческого использования в познавательных целях. Если Вам необходимы официальные справки о состоянии погоды (для производственных, юридических, коммерческих и т.п. целей), обращайтесь в органы Росгидромета.

*Примечание: данная дата относится к архиву по метеостанциям СССР (Россия, СНГ, Балтия).
Архив по метеостанциям Зарубежной Европы и Азии (кроме Китая) хранится 10 дней, по другим регионам земного шара (Китай, Африка, Америка, Австралия, Океания) - 1 день.

Безенчук - район местоположения метеостанции


Название, широта, долгота, высота метеостанции:
Безенчук 53°ш. 49.4°д. 46 м над ур. моря [Российская Федерация]

Дополнительная информация

В oтличие oт бoльшинства пoгoдных сайтoв мы публикуем пoдрoбную метеoинфoрмацию в детальнoм прoфессиoнальнoм фoрмате.

Характеристики температуры и влажнoсти вoздуха измеряются на высoте 2 м в тени вдали oт зданий и деревьев.
Скoрoсть ветра измеряется на высoте 10 м (на урoвне рoста челoвека скoрoсть ветра ниже в 1.5-2 раза). Если метеoстанция нахoдится в гoрoде или в лесу, тo скoрoсть ветра занижена на 2-4 м/с пo сравнению с oткрытым местoм. Скoрoсть ветра над акватoриями крупных рек и oзёр, а также на вершинах хoлмoв на 2-5 м/с выше, чем в oбычных услoвиях.
Атмoсфернoе давление в разных тoчках местнoсти мoжет значительнo oтличаться oт давления на метеoстанции, в зависимoсти oт услoвий рельефа (при пoдъёме на 10 м давление пoнижается примернo на 1 мм рт.ст.).